NKS964 KDTW-KLAS

Flight info

Callsign NKS964
Flight time N/A
Altitude 32000
Route KAYLN3 SMUUV OBK IOW J60 CNOTA/N0454F340 J60 HVE GGAPP CHOWW4
Aircraft A321/M-SDE3FGHIRWY/LB1

Departure

Time N/A
Airport Detroit Metropolitan Wayne County Airport (KDTW)

Arrival

Time 2026-05-08 00:02
Airport Harry Reid International Airport (KLAS)
Time Latitude Longitude Altitude Speed Heading
2026-05-07 23:10 38.89977 -108.97332 34001 ft 442 kts 257°
2026-05-07 23:11 38.87958 -109.04786 33999 ft 443 kts 257°
2026-05-07 23:11 38.85926 -109.12251 33971 ft 443 kts 256°
2026-05-07 23:12 38.83885 -109.19716 33981 ft 444 kts 256°
2026-05-07 23:12 38.81844 -109.27202 33966 ft 445 kts 256°
2026-05-07 23:13 38.79794 -109.34699 33975 ft 446 kts 256°
2026-05-07 23:13 38.77728 -109.42199 33975 ft 446 kts 256°
2026-05-07 23:14 38.75657 -109.49716 33966 ft 447 kts 256°
2026-05-07 23:14 38.73581 -109.57224 33986 ft 447 kts 256°
2026-05-07 23:15 38.71492 -109.64741 33996 ft 447 kts 256°
2026-05-07 23:15 38.69414 -109.72224 34063 ft 446 kts 256°
2026-05-07 23:16 38.67342 -109.79664 34053 ft 446 kts 256°
2026-05-07 23:16 38.65255 -109.87127 33975 ft 445 kts 256°
2026-05-07 23:17 38.63166 -109.94574 33965 ft 445 kts 256°
2026-05-07 23:17 38.61068 -110.02027 33965 ft 446 kts 256°
2026-05-07 23:18 38.58969 -110.09481 33969 ft 446 kts 256°
2026-05-07 23:18 38.56866 -110.16936 33971 ft 446 kts 256°
2026-05-07 23:19 38.54754 -110.24385 33972 ft 446 kts 255°
2026-05-07 23:19 38.52625 -110.31836 33970 ft 446 kts 255°
2026-05-07 23:20 38.50500 -110.39273 33963 ft 446 kts 255°
2026-05-07 23:20 38.48369 -110.46717 33960 ft 446 kts 255°
2026-05-07 23:21 38.46232 -110.54167 33936 ft 447 kts 255°
2026-05-07 23:21 38.44091 -110.61616 33938 ft 448 kts 255°
2026-05-07 23:21 38.43017 -110.65347 34054 ft 448 kts 255°
2026-05-07 23:22 38.41823 -110.69030 34051 ft 453 kts 248°
2026-05-07 23:22 38.38227 -110.75712 34056 ft 460 kts 237°
2026-05-07 23:23 38.34335 -110.82136 34016 ft 461 kts 237°
2026-05-07 23:23 38.30388 -110.88654 33991 ft 462 kts 237°
2026-05-07 23:24 38.26484 -110.95099 33973 ft 464 kts 237°
2026-05-07 23:24 38.22517 -111.01621 33968 ft 464 kts 237°
2026-05-07 23:25 38.18552 -111.08129 33954 ft 465 kts 237°
2026-05-07 23:25 38.14591 -111.14621 33964 ft 465 kts 237°
2026-05-07 23:26 38.10630 -111.21107 33971 ft 465 kts 236°
2026-05-07 23:26 38.06663 -111.27598 33991 ft 465 kts 236°
2026-05-07 23:27 38.00695 -111.37322 33993 ft 466 kts 236°
2026-05-07 23:27 37.96705 -111.43798 34010 ft 467 kts 236°
2026-05-07 23:28 37.93348 -111.49230 34024 ft 467 kts 236°
2026-05-07 23:28 37.89344 -111.55712 34016 ft 467 kts 236°
2026-05-07 23:29 37.85331 -111.62196 34011 ft 467 kts 236°
2026-05-07 23:29 37.81348 -111.68613 34008 ft 467 kts 236°
2026-05-07 23:30 37.77337 -111.75072 34031 ft 467 kts 236°
2026-05-07 23:30 37.73293 -111.81578 34075 ft 467 kts 235°
2026-05-07 23:31 37.69272 -111.88026 34102 ft 468 kts 234°
2026-05-07 23:31 37.65261 -111.94446 34140 ft 469 kts 234°
2026-05-07 23:32 37.61214 -112.00905 34170 ft 469 kts 234°
2026-05-07 23:32 37.57156 -112.07353 34169 ft 469 kts 234°
2026-05-07 23:33 37.53133 -112.13831 34141 ft 468 kts 239°
2026-05-07 23:33 37.49579 -112.20692 34111 ft 468 kts 240°
2026-05-07 23:34 37.46026 -112.27563 34073 ft 468 kts 240°
2026-05-07 23:34 37.42468 -112.34430 34029 ft 468 kts 240°
2026-05-07 23:35 37.38906 -112.41287 33991 ft 468 kts 240°
2026-05-07 23:35 37.35339 -112.48136 33984 ft 468 kts 239°
2026-05-07 23:36 37.31757 -112.54995 33984 ft 469 kts 239°
2026-05-07 23:36 37.28172 -112.61839 33985 ft 470 kts 239°
2026-05-07 23:37 37.24579 -112.68692 33991 ft 470 kts 239°
2026-05-07 23:37 37.20993 -112.75533 34001 ft 470 kts 239°
2026-05-07 23:38 37.17398 -112.82379 34030 ft 470 kts 239°
2026-05-07 23:38 37.13778 -112.89228 34059 ft 471 kts 239°
2026-05-07 23:39 37.10156 -112.96064 34093 ft 471 kts 239°
2026-05-07 23:39 37.06533 -113.02905 34122 ft 472 kts 239°
2026-05-07 23:40 37.02903 -113.09747 34127 ft 471 kts 239°
2026-05-07 23:40 36.99414 -113.16322 34058 ft 473 kts 239°
2026-05-07 23:41 36.97595 -113.19748 33688 ft 472 kts 239°
2026-05-07 23:41 36.95760 -113.23199 32743 ft 479 kts 239°
2026-05-07 23:41 36.93905 -113.26675 31866 ft 482 kts 239°
2026-05-07 23:41 36.92033 -113.30177 30966 ft 487 kts 239°
2026-05-07 23:42 36.90141 -113.33718 29971 ft 493 kts 239°
2026-05-07 23:42 36.88231 -113.37287 29159 ft 492 kts 239°
2026-05-07 23:42 36.86366 -113.40760 28608 ft 486 kts 239°
2026-05-07 23:42 36.84490 -113.44255 27991 ft 483 kts 239°
2026-05-07 23:43 36.82626 -113.47719 27398 ft 479 kts 239°
2026-05-07 23:43 36.80774 -113.51154 26794 ft 475 kts 239°
2026-05-07 23:43 36.78941 -113.54562 26224 ft 470 kts 239°
2026-05-07 23:43 36.77131 -113.57939 25640 ft 466 kts 239°
2026-05-07 23:44 36.75339 -113.61290 25063 ft 463 kts 239°
2026-05-07 23:44 36.73560 -113.64611 24493 ft 459 kts 239°
2026-05-07 23:44 36.71791 -113.67904 23928 ft 455 kts 239°
2026-05-07 23:44 36.70033 -113.71174 23353 ft 452 kts 239°
2026-05-07 23:45 36.68291 -113.74410 22772 ft 447 kts 239°
2026-05-07 23:45 36.66571 -113.77594 22254 ft 440 kts 239°
2026-05-07 23:45 36.64875 -113.80734 21749 ft 434 kts 239°
2026-05-07 23:45 36.63205 -113.83827 21250 ft 428 kts 239°
2026-05-07 23:46 36.61550 -113.86885 20782 ft 424 kts 239°
2026-05-07 23:46 36.59910 -113.89909 20288 ft 420 kts 239°
2026-05-07 23:46 36.58269 -113.92896 19818 ft 417 kts 237°
2026-05-07 23:46 36.56560 -113.95800 19351 ft 415 kts 236°
2026-05-07 23:47 36.54799 -113.98635 18883 ft 413 kts 234°
2026-05-07 23:47 36.53023 -114.01424 18388 ft 410 kts 234°
2026-05-07 23:47 36.51272 -114.04161 17874 ft 407 kts 234°
2026-05-07 23:47 36.49507 -114.06940 17359 ft 403 kts 234°
2026-05-07 23:48 36.47784 -114.09676 16884 ft 399 kts 234°
2026-05-07 23:48 36.46095 -114.12376 16536 ft 391 kts 234°
2026-05-07 23:48 36.44461 -114.15003 16389 ft 377 kts 235°
2026-05-07 23:48 36.42908 -114.17506 16271 ft 364 kts 235°
2026-05-07 23:49 36.41386 -114.19957 16143 ft 352 kts 235°
2026-05-07 23:49 36.39913 -114.22321 16023 ft 340 kts 235°
2026-05-07 23:49 36.38478 -114.24615 15761 ft 334 kts 235°
2026-05-07 23:49 36.37037 -114.26895 15305 ft 335 kts 234°
2026-05-07 23:50 36.35606 -114.29143 14956 ft 330 kts 234°
2026-05-07 23:50 36.34185 -114.31367 14411 ft 329 kts 234°
2026-05-07 23:50 36.32770 -114.33577 13943 ft 325 kts 234°
2026-05-07 23:50 36.31373 -114.35757 13524 ft 321 kts 234°
2026-05-07 23:51 36.29996 -114.37911 13118 ft 319 kts 233°
2026-05-07 23:51 36.28617 -114.40065 12702 ft 318 kts 233°
2026-05-07 23:51 36.27243 -114.42210 12308 ft 317 kts 234°
2026-05-07 23:51 36.25880 -114.44344 11912 ft 315 kts 234°
2026-05-07 23:52 36.24526 -114.46458 11509 ft 312 kts 234°
2026-05-07 23:52 36.23175 -114.48541 11138 ft 309 kts 233°
2026-05-07 23:52 36.21826 -114.50605 10747 ft 306 kts 234°
2026-05-07 23:52 36.20493 -114.52638 10363 ft 302 kts 233°
2026-05-07 23:53 36.19170 -114.54647 9991 ft 299 kts 234°
2026-05-07 23:53 36.17862 -114.56639 9688 ft 296 kts 234°
2026-05-07 23:53 36.16585 -114.58583 9569 ft 284 kts 234°
2026-05-07 23:53 36.15375 -114.60431 9449 ft 271 kts 234°
2026-05-07 23:54 36.14217 -114.62199 9352 ft 257 kts 234°
2026-05-07 23:54 36.13106 -114.63899 8889 ft 255 kts 234°
2026-05-07 23:54 36.12021 -114.65560 8714 ft 240 kts 234°
2026-05-07 23:54 36.11001 -114.67117 8577 ft 226 kts 234°
2026-05-07 23:55 36.10025 -114.68608 8271 ft 220 kts 234°
2026-05-07 23:55 36.09066 -114.70073 8137 ft 219 kts 234°
2026-05-07 23:55 36.08143 -114.71515 8037 ft 209 kts 239°
2026-05-07 23:55 36.07530 -114.73100 7900 ft 203 kts 256°
2026-05-07 23:56 36.07294 -114.74798 7663 ft 199 kts 270°
2026-05-07 23:56 36.07309 -114.76504 7466 ft 198 kts 272°
2026-05-07 23:56 36.07334 -114.78204 7310 ft 197 kts 272°
2026-05-07 23:56 36.07339 -114.79910 6988 ft 199 kts 271°
2026-05-07 23:57 36.07336 -114.81608 6643 ft 196 kts 271°
2026-05-07 23:57 36.07342 -114.83283 6401 ft 194 kts 271°
2026-05-07 23:57 36.07349 -114.84936 6182 ft 195 kts 270°
2026-05-07 23:57 36.07337 -114.86613 5936 ft 195 kts 270°
2026-05-07 23:58 36.07335 -114.88292 5717 ft 195 kts 271°
2026-05-07 23:58 36.07353 -114.89962 5477 ft 194 kts 271°
2026-05-07 23:58 36.07357 -114.91632 5218 ft 195 kts 271°
2026-05-07 23:58 36.07357 -114.93308 4985 ft 195 kts 270°
2026-05-07 23:59 36.07354 -114.94991 4731 ft 196 kts 270°
2026-05-07 23:59 36.07347 -114.96671 4516 ft 196 kts 270°
2026-05-07 23:59 36.07355 -114.98354 4294 ft 196 kts 271°
2026-05-07 23:59 36.07363 -115.00039 4036 ft 196 kts 270°
2026-05-08 00:00 36.07359 -115.01716 3874 ft 193 kts 270°
2026-05-08 00:00 36.07366 -115.03313 3570 ft 180 kts 269°
2026-05-08 00:00 36.07368 -115.04827 3259 ft 174 kts 270°
2026-05-08 00:00 36.07365 -115.06262 3047 ft 163 kts 271°
2026-05-08 00:01 36.07367 -115.07650 2837 ft 161 kts 271°
2026-05-08 00:01 36.07370 -115.09024 2641 ft 159 kts 270°
2026-05-08 00:01 36.07369 -115.10390 2447 ft 159 kts 270°
2026-05-08 00:01 36.07372 -115.11749 2268 ft 158 kts 270°
2026-05-08 00:02 36.07364 -115.13105 2138 ft 155 kts 271°
2026-05-08 00:02 36.07365 -115.14277 2127 ft 113 kts 270°
2026-05-08 00:02 36.07364 -115.15011 2121 ft 48 kts 270°
2026-05-08 00:02 36.07381 -115.15310 2120 ft 18 kts 292°
2026-05-08 00:03 36.07424 -115.15420 2123 ft 11 kts 298°
2026-05-08 00:03 36.07446 -115.15465 2122 ft 0 kts 302°
2026-05-08 00:04 36.07452 -115.15477 2122 ft 6 kts 302°
2026-05-08 00:04 36.07477 -115.15527 2123 ft 7 kts 302°
2026-05-08 00:04 36.07507 -115.15582 2122 ft 8 kts 306°
2026-05-08 00:04 36.07541 -115.15632 2124 ft 8 kts 313°
2026-05-08 00:05 36.07589 -115.15686 2125 ft 11 kts 317°
2026-05-08 00:05 36.07652 -115.15759 2124 ft 13 kts 317°
2026-05-08 00:05 36.07732 -115.15824 2123 ft 14 kts 349°
2026-05-08 00:05 36.07801 -115.15765 2126 ft 13 kts 76°
2026-05-08 00:06 36.07804 -115.15645 2124 ft 14 kts 91°
2026-05-08 00:06 36.07804 -115.15526 2126 ft 13 kts 90°
2026-05-08 00:06 36.07804 -115.15421 2129 ft 12 kts 90°
2026-05-08 00:06 36.07804 -115.15325 2129 ft 10 kts 90°
2026-05-08 00:07 36.07805 -115.15243 2127 ft 6 kts 87°
2026-05-08 00:07 36.07814 -115.15221 2127 ft 3 kts 59°
2026-05-08 00:07 36.07817 -115.15168 2127 ft 10 kts 100°
2026-05-08 00:07 36.07801 -115.15079 2125 ft 11 kts 94°
2026-05-08 00:08 36.07797 -115.14983 2126 ft 11 kts 92°
2026-05-08 00:08 36.07793 -115.14880 2126 ft 13 kts 93°
2026-05-08 00:08 36.07785 -115.14760 2123 ft 15 kts 98°
2026-05-08 00:08 36.07772 -115.14617 2120 ft 18 kts 95°
2026-05-08 00:09 36.07766 -115.14493 2120 ft 10 kts 93°
2026-05-08 00:09 36.07760 -115.14412 2121 ft 10 kts 96°
2026-05-08 00:09 36.07756 -115.14324 2120 ft 11 kts 88°
2026-05-08 00:09 36.07765 -115.14222 2119 ft 13 kts 91°
2026-05-08 00:10 36.07816 -115.14142 2120 ft 13 kts 44°
2026-05-08 00:10 36.07830 -115.14034 2122 ft 12 kts 74°
2026-05-08 00:10 36.07862 -115.13980 2121 ft 12 kts 48°
2026-05-08 00:10 36.07923 -115.13903 2120 ft 14 kts 44°
2026-05-08 00:11 36.07994 -115.13816 2116 ft 12 kts 46°
2026-05-08 00:11 36.08012 -115.13739 2118 ft 8 kts 105°
2026-05-08 00:11 36.08018 -115.13680 2118 ft 4 kts 66°
2026-05-08 00:11 36.08040 -115.13656 2118 ft 3 kts 39°
2026-05-08 00:12 36.08046 -115.13650 2118 ft 0 kts 40°